Flag for U.S.A. Weather past 2 weeks in Simi Valley, California, U.S.A.

Now
60 °F

Partly sunny.


Feels Like: 60 °F
Forecast: 54 / 80 °F
Wind: 3 mph from Southeast

Location: Van Nuys Airport

Current Time: May 28, 2015 at 9:53:26 AM

Latest Report: May 28, 2015 at 8:51 AM


Visibility: 6 mi

Pressure: 29.98 "Hg

Humidity: 78%

Dew point: 53 °F

Location of Simi ValleyLocation

Historic Weather in Simi Valley — Graph

°F

Simi Valley temperature yesterday

Maximum temperature yesterday: 76 °F (at 1:51 PM)
Minimum temperature yesterday: 57 °F (at 1:02 AM)
Average temperature yesterday: 63 °F

Past Weeks' High & Low Weather Summary

 TemperatureHumidityPressure
High76 °F (May 27, 1:51 PM)92% (May 15, 4:51 AM)30.07 "Hg (May 15, 4:51 AM)
Low51 °F (May 15, 4:51 AM)41% (May 19, 4:51 PM)29.80 "Hg (May 15, 4:51 PM)
Average61 °F65%29.95 "Hg
* Reported May 13 7:51 AM — May 28 7:51 AM, Simi Valley, Weather by CustomWeather, © 2015

Note: Actual official high and low records may vary slightly from our data, if they occured in-between our weather recording intervals... More about our weather records

Advertising

Simi Valley weather history for previous 24 hours

 ConditionsComfort  
Time TempWeatherWind HumidityBarometerVisibility
7:51 AM
Thu, May 28
56 °FFog.6 mph90%29.98 "Hg5 mi
6:51 AM56 °FPassing clouds.3 mph87%29.96 "Hg10 mi
5:51 AM56 °FClear.5 mph84%29.94 "Hg10 mi
4:51 AM56 °FClear.No wind84%29.93 "Hg10 mi
3:51 AM56 °FClear.No wind87%29.93 "Hg10 mi
2:51 AM58 °FClear.No wind81%29.93 "Hg10 mi
1:51 AM58 °FClear.No wind81%29.94 "Hg10 mi
12:51 AM58 °FClear.No wind81%29.96 "Hg10 mi
11:51 PM
Wed, May 27
60 °FClear.6 mph75%29.96 "Hg10 mi
10:51 PM60 °FClear.3 mph78%29.96 "Hg10 mi
9:51 PM61 °FClear.5 mph75%29.96 "Hg10 mi
8:51 PM62 °FSunny.6 mph73%29.95 "Hg10 mi
7:51 PM65 °FSunny.7 mph66%29.93 "Hg10 mi
6:51 PM69 °FSunny.9 mph57%29.91 "Hg10 mi
5:51 PM72 °FSunny.10 mph52%29.90 "Hg10 mi
4:51 PM74 °FSunny.10 mph50%29.90 "Hg10 mi
3:51 PM76 °FSunny.12 mph47%29.90 "Hg10 mi
2:51 PM76 °FSunny.7 mph47%29.92 "Hg10 mi
1:51 PM76 °FSunny.3 mph43%29.93 "Hg10 mi
12:51 PM68 °FScattered clouds.No wind59%29.96 "Hg10 mi
11:59 AM66 °FScattered clouds.No wind63%29.99 "Hg9 mi
10:51 AM62 °FOvercast.3 mph70%29.98 "Hg8 mi
9:51 AM60 °FOvercast.3 mph78%29.98 "Hg6 mi
Weather by CustomWeather, © 2015

See weather overviewHow to use our weather pages